Year,Month,Day,Hour,Minute,Value (Times are PST for temperature in C)
2017,08,04,00,00,22.40
2017,08,04,00,01,22.30
2017,08,04,00,02,22.30
2017,08,04,00,03,22.20
2017,08,04,00,04,22.20
2017,08,04,00,05,22.10
2017,08,04,00,06,22.00
2017,08,04,00,07,22.00
2017,08,04,00,08,21.90
2017,08,04,00,09,21.80
2017,08,04,00,10,21.80
2017,08,04,00,11,21.70
2017,08,04,00,12,21.70
2017,08,04,00,13,21.60
2017,08,04,00,14,21.60
2017,08,04,00,15,21.50
2017,08,04,00,16,21.50
2017,08,04,00,17,21.40
2017,08,04,00,18,21.40
2017,08,04,00,19,21.30
2017,08,04,00,20,21.20
2017,08,04,00,21,21.20
2017,08,04,00,22,21.10
2017,08,04,00,23,21.00
2017,08,04,00,24,21.00
2017,08,04,00,25,20.90
2017,08,04,00,26,20.80
2017,08,04,00,27,20.70
2017,08,04,00,28,20.60
2017,08,04,00,29,20.50
2017,08,04,00,30,20.40
2017,08,04,00,31,20.30
2017,08,04,00,32,20.20
2017,08,04,00,33,20.10
2017,08,04,00,34,19.90
2017,08,04,00,35,19.80
2017,08,04,00,36,19.70
2017,08,04,00,37,19.70
2017,08,04,00,38,19.60
2017,08,04,00,39,19.50
2017,08,04,00,40,19.40
2017,08,04,00,41,19.40
2017,08,04,00,42,19.30
2017,08,04,00,43,19.20
2017,08,04,00,44,19.20
2017,08,04,00,45,19.10
2017,08,04,00,46,19.10
2017,08,04,00,47,19.00
2017,08,04,00,48,19.00
2017,08,04,00,49,19.00
2017,08,04,00,50,18.90
2017,08,04,00,51,18.90
2017,08,04,00,52,18.90
2017,08,04,00,53,18.90
2017,08,04,00,54,18.90
2017,08,04,00,55,18.90
2017,08,04,00,56,18.80
2017,08,04,00,57,18.80
2017,08,04,00,58,18.80
2017,08,04,00,59,18.80
2017,08,04,01,00,18.80
2017,08,04,01,01,18.80
2017,08,04,01,02,18.80
2017,08,04,01,03,18.80
2017,08,04,01,04,18.80
2017,08,04,01,05,18.80
2017,08,04,01,06,18.80
2017,08,04,01,07,18.80
2017,08,04,01,08,18.80
2017,08,04,01,09,18.80
2017,08,04,01,10,18.80
2017,08,04,01,11,18.80
2017,08,04,01,12,18.80
2017,08,04,01,13,18.70
2017,08,04,01,14,18.70
2017,08,04,01,15,18.70
2017,08,04,01,16,18.70
2017,08,04,01,17,18.70
2017,08,04,01,18,18.60
2017,08,04,01,19,18.60
2017,08,04,01,20,18.60
2017,08,04,01,21,18.60
2017,08,04,01,22,18.60
2017,08,04,01,23,18.60
2017,08,04,01,24,18.50
2017,08,04,01,25,18.50
2017,08,04,01,26,18.50
2017,08,04,01,27,18.50
2017,08,04,01,28,18.50
2017,08,04,01,29,18.50
2017,08,04,01,30,18.40
2017,08,04,01,31,18.40
2017,08,04,01,32,18.40
2017,08,04,01,33,18.40
2017,08,04,01,34,18.40
2017,08,04,01,35,18.30
2017,08,04,01,36,18.30
2017,08,04,01,37,18.30
2017,08,04,01,38,18.30
2017,08,04,01,39,18.30
2017,08,04,01,40,18.20
2017,08,04,01,41,18.20
2017,08,04,01,42,18.20
2017,08,04,01,43,18.20
2017,08,04,01,44,18.20
2017,08,04,01,45,18.10
2017,08,04,01,46,18.10
2017,08,04,01,47,18.10
2017,08,04,01,48,18.10
2017,08,04,01,49,18.10
2017,08,04,01,50,18.00
2017,08,04,01,51,18.00
2017,08,04,01,52,18.00
2017,08,04,01,53,17.90
2017,08,04,01,54,17.90
2017,08,04,01,55,17.90
2017,08,04,01,56,17.90
2017,08,04,01,57,17.90
2017,08,04,01,58,17.80
2017,08,04,01,59,17.80
2017,08,04,02,00,17.80
2017,08,04,02,01,17.80
2017,08,04,02,02,17.80
2017,08,04,02,03,17.80
2017,08,04,02,04,17.80
2017,08,04,02,05,17.80
2017,08,04,02,06,17.80
2017,08,04,02,07,17.80
2017,08,04,02,08,17.80
2017,08,04,02,09,17.80
2017,08,04,02,10,17.80
2017,08,04,02,11,17.80
2017,08,04,02,12,17.70
2017,08,04,02,13,17.70
2017,08,04,02,14,17.70
2017,08,04,02,15,17.70
2017,08,04,02,16,17.70
2017,08,04,02,17,17.70
2017,08,04,02,18,17.70
2017,08,04,02,19,17.70
2017,08,04,02,20,17.60
2017,08,04,02,21,17.60
2017,08,04,02,22,17.60
2017,08,04,02,23,17.60
2017,08,04,02,24,17.60
2017,08,04,02,25,17.60
2017,08,04,02,26,17.60
2017,08,04,02,27,17.60
2017,08,04,02,28,17.60
2017,08,04,02,29,17.50
2017,08,04,02,30,17.50
2017,08,04,02,31,17.50
2017,08,04,02,32,17.50
2017,08,04,02,33,17.40
2017,08,04,02,34,17.40
2017,08,04,02,35,17.40
2017,08,04,02,36,17.40
2017,08,04,02,37,17.40
2017,08,04,02,38,17.40
2017,08,04,02,39,17.40
2017,08,04,02,40,17.40
2017,08,04,02,41,17.40
2017,08,04,02,42,17.40
2017,08,04,02,43,17.40
2017,08,04,02,44,17.40
2017,08,04,02,45,17.40
2017,08,04,02,46,17.40
2017,08,04,02,47,17.40
2017,08,04,02,48,17.40
2017,08,04,02,49,17.30
2017,08,04,02,50,17.40
2017,08,04,02,51,17.40
2017,08,04,02,52,17.40
2017,08,04,02,53,17.40
2017,08,04,02,54,17.40
2017,08,04,02,55,17.40
2017,08,04,02,56,17.40
2017,08,04,02,57,17.40
2017,08,04,02,58,17.40
2017,08,04,02,59,17.40
2017,08,04,03,00,17.30
2017,08,04,03,01,17.30
2017,08,04,03,02,17.30
2017,08,04,03,03,17.30
2017,08,04,03,04,17.30
2017,08,04,03,05,17.20
2017,08,04,03,06,17.20
2017,08,04,03,07,17.20
2017,08,04,03,08,17.20
2017,08,04,03,09,17.20
2017,08,04,03,10,17.20
2017,08,04,03,11,17.20
2017,08,04,03,12,17.20
2017,08,04,03,13,17.20
2017,08,04,03,14,17.20
2017,08,04,03,15,17.20
2017,08,04,03,16,17.10
2017,08,04,03,17,17.10
2017,08,04,03,18,17.10
2017,08,04,03,19,17.10
2017,08,04,03,20,17.10
2017,08,04,03,21,17.10
2017,08,04,03,22,17.20
2017,08,04,03,23,17.20
2017,08,04,03,24,17.20
2017,08,04,03,25,17.20
2017,08,04,03,26,17.20
2017,08,04,03,27,17.20
2017,08,04,03,28,17.20
2017,08,04,03,29,17.20
2017,08,04,03,30,17.20
2017,08,04,03,31,17.10
2017,08,04,03,32,17.10
2017,08,04,03,33,17.10
2017,08,04,03,34,17.10
2017,08,04,03,35,17.00
2017,08,04,03,36,17.00
2017,08,04,03,37,17.00
2017,08,04,03,38,16.90
2017,08,04,03,39,16.90
2017,08,04,03,40,16.90
2017,08,04,03,41,16.90
2017,08,04,03,42,16.80
2017,08,04,03,43,16.80
2017,08,04,03,44,16.80
2017,08,04,03,45,16.80
2017,08,04,03,46,16.80
2017,08,04,03,47,16.80
2017,08,04,03,48,16.80
2017,08,04,03,49,16.80
2017,08,04,03,50,16.80
2017,08,04,03,51,16.80
2017,08,04,03,52,16.80
2017,08,04,03,53,16.80
2017,08,04,03,54,16.80
2017,08,04,03,55,16.80
2017,08,04,03,56,16.80
2017,08,04,03,57,16.80
2017,08,04,03,58,16.80
2017,08,04,03,59,16.80
2017,08,04,04,00,16.80
2017,08,04,04,01,16.80
2017,08,04,04,02,16.80
2017,08,04,04,03,16.80
2017,08,04,05,04,19.30
2017,08,04,05,05,19.20
2017,08,04,05,06,19.20
2017,08,04,05,07,19.10
2017,08,04,05,08,19.10
2017,08,04,05,09,19.00
2017,08,04,05,10,19.00
2017,08,04,05,11,18.90
2017,08,04,05,12,18.90
2017,08,04,05,13,19.00
2017,08,04,05,14,19.00
2017,08,04,05,15,18.90
2017,08,04,05,16,18.90
2017,08,04,05,17,18.90
2017,08,04,05,18,18.80
2017,08,04,05,19,18.80
2017,08,04,05,20,18.70
2017,08,04,05,21,18.70
2017,08,04,05,22,18.70
2017,08,04,05,23,18.70
2017,08,04,05,24,18.70
2017,08,04,05,25,18.70
2017,08,04,05,26,18.70
2017,08,04,05,27,18.70
2017,08,04,05,28,18.70
2017,08,04,05,29,18.70
2017,08,04,05,30,18.70
2017,08,04,05,31,18.70
2017,08,04,05,32,18.60
2017,08,04,05,33,18.60
2017,08,04,05,34,18.60
2017,08,04,05,35,18.50
2017,08,04,05,36,18.40
2017,08,04,05,37,18.40
2017,08,04,05,38,18.30
2017,08,04,05,39,18.30
2017,08,04,05,40,18.20
2017,08,04,05,41,18.20
2017,08,04,05,42,18.20
2017,08,04,05,43,18.10
2017,08,04,05,44,18.10
2017,08,04,05,45,18.00
2017,08,04,05,46,18.00
2017,08,04,05,47,17.90
2017,08,04,05,48,17.90
2017,08,04,05,49,17.90
2017,08,04,05,50,17.90
2017,08,04,05,51,17.80
2017,08,04,05,52,17.80
2017,08,04,05,53,17.80
2017,08,04,05,54,17.80
2017,08,04,05,55,17.80
2017,08,04,05,56,17.80
2017,08,04,05,57,17.80
2017,08,04,05,58,17.80
2017,08,04,05,59,17.80
2017,08,04,06,00,17.80
2017,08,04,06,01,17.70
2017,08,04,06,02,17.70
2017,08,04,06,03,17.70
2017,08,04,06,04,17.70
2017,08,04,06,05,17.70
2017,08,04,06,06,17.60
2017,08,04,06,07,17.60
2017,08,04,06,08,17.60
2017,08,04,06,09,17.60
2017,08,04,06,10,17.70
2017,08,04,06,11,17.70
2017,08,04,06,12,17.80
2017,08,04,06,13,17.90
2017,08,04,06,14,18.10
2017,08,04,06,15,18.20
2017,08,04,06,16,18.30
2017,08,04,06,17,18.40
2017,08,04,06,18,18.50
2017,08,04,06,19,18.60
2017,08,04,06,20,18.70
2017,08,04,06,21,18.70
2017,08,04,06,22,18.80
2017,08,04,06,23,18.80
2017,08,04,06,24,18.90
2017,08,04,06,25,18.90
2017,08,04,06,26,18.90
2017,08,04,06,27,19.00
2017,08,04,06,28,19.00
2017,08,04,06,29,19.10
2017,08,04,06,30,19.20
2017,08,04,06,31,19.20
2017,08,04,06,32,19.30
2017,08,04,06,33,19.30
2017,08,04,06,34,19.40
2017,08,04,06,35,19.40
2017,08,04,06,36,19.40
2017,08,04,06,37,19.50
2017,08,04,06,38,19.50
2017,08,04,06,39,19.50
2017,08,04,06,40,19.60
2017,08,04,06,41,19.60
2017,08,04,06,42,19.60
2017,08,04,06,43,19.60
2017,08,04,06,44,19.60
2017,08,04,06,45,19.60
2017,08,04,06,46,19.60
2017,08,04,06,47,19.60
2017,08,04,06,48,19.60
2017,08,04,06,49,19.60
2017,08,04,06,50,19.60
2017,08,04,06,51,19.60
2017,08,04,06,52,19.50
2017,08,04,06,53,19.50
2017,08,04,06,54,19.50
2017,08,04,06,55,19.50
2017,08,04,06,56,19.40
2017,08,04,06,57,19.40
2017,08,04,06,58,19.40
2017,08,04,06,59,19.40
2017,08,04,07,00,19.40
2017,08,04,07,01,19.40
2017,08,04,07,02,19.40
2017,08,04,07,03,19.40
2017,08,04,07,04,19.40
2017,08,04,07,05,19.40
2017,08,04,07,06,19.40
2017,08,04,07,07,19.30
2017,08,04,07,08,19.30
2017,08,04,07,09,19.30
2017,08,04,07,10,19.30
2017,08,04,07,11,19.30
2017,08,04,07,12,19.30
2017,08,04,07,13,19.30
2017,08,04,07,14,19.40
2017,08,04,07,15,19.40
2017,08,04,07,16,19.40
2017,08,04,07,17,19.40
2017,08,04,07,18,19.40
2017,08,04,07,19,19.40
2017,08,04,07,20,19.50
2017,08,04,07,21,19.50
2017,08,04,07,22,19.50
2017,08,04,07,23,19.50
2017,08,04,07,24,19.60
2017,08,04,07,25,19.60
2017,08,04,07,26,19.60
2017,08,04,07,27,19.60
2017,08,04,07,28,19.60
2017,08,04,07,29,19.60
2017,08,04,07,30,19.60
2017,08,04,07,31,19.60
2017,08,04,07,32,19.60
2017,08,04,07,33,19.60
2017,08,04,07,34,19.60
2017,08,04,07,35,19.60
2017,08,04,07,36,19.60
2017,08,04,07,37,19.60
2017,08,04,07,38,19.60
2017,08,04,07,39,19.60
2017,08,04,07,40,19.60
2017,08,04,07,41,19.60
2017,08,04,07,42,19.60
2017,08,04,07,43,19.70
2017,08,04,07,44,19.70
2017,08,04,07,45,19.70
2017,08,04,07,46,19.70
2017,08,04,07,47,19.70
2017,08,04,07,48,19.70
2017,08,04,07,49,19.80
2017,08,04,07,50,19.80
2017,08,04,07,51,19.80
2017,08,04,07,52,19.80
2017,08,04,07,53,19.80
2017,08,04,07,54,19.80
2017,08,04,07,55,19.90
2017,08,04,07,56,19.90
2017,08,04,07,57,19.90
2017,08,04,07,58,19.90
2017,08,04,07,59,20.00
2017,08,04,08,00,20.00
2017,08,04,08,01,20.00
2017,08,04,08,02,20.10
2017,08,04,08,03,20.10
2017,08,04,08,04,20.10
2017,08,04,08,05,20.20
2017,08,04,08,06,20.20
2017,08,04,08,07,20.20
2017,08,04,08,08,20.30
2017,08,04,08,09,20.30
2017,08,04,08,10,20.30
2017,08,04,08,11,20.30
2017,08,04,08,12,20.40
2017,08,04,08,13,20.40
2017,08,04,08,14,20.50
2017,08,04,08,15,20.50
2017,08,04,08,16,20.50
2017,08,04,08,17,20.60
2017,08,04,08,18,20.60
2017,08,04,08,19,20.60
2017,08,04,08,20,20.60
2017,08,04,08,21,20.70
2017,08,04,08,22,20.70
2017,08,04,08,23,20.70
2017,08,04,08,24,20.80
2017,08,04,08,25,20.80
2017,08,04,08,26,20.80
2017,08,04,08,27,20.80
2017,08,04,08,28,20.90
2017,08,04,08,29,20.90
2017,08,04,08,30,20.90
2017,08,04,08,31,21.00
2017,08,04,08,32,21.00
2017,08,04,08,33,21.00
2017,08,04,08,34,21.10
2017,08,04,08,35,21.10
2017,08,04,08,36,21.10
2017,08,04,08,37,21.10
2017,08,04,08,38,21.20
2017,08,04,08,39,21.20
2017,08,04,08,40,21.20
2017,08,04,08,41,21.20
2017,08,04,08,42,21.20
2017,08,04,08,43,21.20
2017,08,04,08,44,21.30
2017,08,04,08,45,21.30
2017,08,04,08,46,21.30
2017,08,04,08,47,21.40
2017,08,04,08,48,21.40
2017,08,04,08,49,21.50
2017,08,04,08,50,21.50
2017,08,04,08,51,21.60
2017,08,04,08,52,21.60
2017,08,04,08,53,21.60
2017,08,04,08,54,21.60
2017,08,04,08,55,21.60
2017,08,04,08,56,21.70
2017,08,04,08,57,21.60
2017,08,04,08,58,21.60
2017,08,04,08,59,21.60
2017,08,04,09,00,21.60
2017,08,04,09,01,21.60
2017,08,04,09,02,21.70
2017,08,04,09,03,21.70
2017,08,04,09,04,21.70
2017,08,04,09,05,21.70
2017,08,04,09,06,21.70
2017,08,04,09,07,21.70
2017,08,04,09,08,21.70
2017,08,04,09,09,21.70
2017,08,04,09,10,21.70
2017,08,04,09,11,21.70
2017,08,04,09,12,21.70
2017,08,04,09,13,21.70
2017,08,04,09,14,21.70
2017,08,04,09,15,21.70
2017,08,04,09,16,21.70
2017,08,04,09,17,21.80
2017,08,04,09,18,21.80
2017,08,04,09,19,21.90
2017,08,04,09,20,21.90
2017,08,04,09,21,21.90
2017,08,04,09,22,21.90
2017,08,04,09,23,21.90
2017,08,04,09,24,21.80
2017,08,04,09,25,21.80
2017,08,04,09,26,21.80
2017,08,04,09,27,21.90
2017,08,04,09,28,21.90
2017,08,04,09,29,21.90
2017,08,04,09,30,22.00
2017,08,04,09,31,22.00
2017,08,04,09,32,22.10
2017,08,04,09,33,22.10
2017,08,04,09,34,22.10
2017,08,04,09,35,22.10
2017,08,04,09,36,22.20
2017,08,04,09,37,22.20
2017,08,04,09,38,22.20
2017,08,04,09,39,22.20
2017,08,04,09,40,22.20
2017,08,04,09,41,22.20
2017,08,04,09,42,22.20
2017,08,04,09,43,22.30
2017,08,04,09,44,22.30
2017,08,04,09,45,22.30
2017,08,04,09,46,22.40
2017,08,04,09,47,22.40
2017,08,04,09,48,22.40
2017,08,04,09,49,22.40
2017,08,04,09,50,22.50
2017,08,04,09,51,22.50
2017,08,04,09,52,22.60
2017,08,04,09,53,22.60
2017,08,04,09,54,22.70
2017,08,04,09,55,22.70
2017,08,04,09,56,22.70
2017,08,04,09,57,22.70
2017,08,04,09,58,22.80
2017,08,04,09,59,22.80
2017,08,04,10,00,22.80
2017,08,04,10,01,22.80
2017,08,04,10,02,22.80
2017,08,04,10,03,22.80
2017,08,04,10,04,22.90
2017,08,04,10,05,22.90
2017,08,04,10,06,23.00
2017,08,04,10,07,23.00
2017,08,04,10,08,23.10
2017,08,04,10,09,23.10
2017,08,04,10,10,23.20
2017,08,04,10,11,23.20
2017,08,04,10,12,23.30
2017,08,04,10,13,23.30
2017,08,04,10,14,23.40
2017,08,04,10,15,23.50
2017,08,04,10,16,23.60
2017,08,04,10,17,23.60
2017,08,04,10,18,23.70
2017,08,04,10,19,23.80
2017,08,04,10,20,23.80
2017,08,04,10,21,23.90
2017,08,04,10,22,23.90
2017,08,04,10,23,24.00
2017,08,04,10,24,24.10
2017,08,04,10,25,24.20
2017,08,04,10,26,24.20
2017,08,04,10,27,24.30
2017,08,04,10,28,24.40
2017,08,04,10,29,24.40
2017,08,04,10,30,24.40
2017,08,04,10,31,24.40
2017,08,04,10,32,24.40
2017,08,04,10,33,24.40
2017,08,04,10,34,24.50
2017,08,04,10,35,24.50
2017,08,04,10,36,24.60
2017,08,04,10,37,24.60
2017,08,04,10,38,24.70
2017,08,04,10,39,24.80
2017,08,04,10,40,24.80
2017,08,04,10,41,24.90
2017,08,04,10,42,24.90
2017,08,04,10,43,24.90
2017,08,04,10,44,24.90
2017,08,04,10,45,24.90
2017,08,04,10,46,25.00
2017,08,04,10,47,25.00
2017,08,04,10,48,25.00
2017,08,04,10,49,25.10
2017,08,04,10,50,25.20
2017,08,04,10,51,25.30
2017,08,04,10,52,25.30
2017,08,04,10,53,25.30
2017,08,04,10,54,25.30
2017,08,04,10,55,25.30
2017,08,04,10,56,25.30
2017,08,04,10,57,25.30
2017,08,04,10,58,25.30
2017,08,04,10,59,25.30
2017,08,04,11,00,25.30
2017,08,04,11,01,25.30
2017,08,04,11,02,25.20
2017,08,04,11,03,25.20
2017,08,04,11,04,25.10
2017,08,04,11,05,25.00
2017,08,04,11,06,24.80
2017,08,04,11,07,24.80
2017,08,04,11,08,24.70
2017,08,04,11,09,24.70
2017,08,04,11,10,24.70
2017,08,04,11,11,24.70
2017,08,04,11,12,24.80
2017,08,04,11,13,24.80
2017,08,04,11,14,24.80
2017,08,04,11,15,24.80
2017,08,04,11,16,24.80
2017,08,04,11,17,24.80
2017,08,04,11,18,24.80
2017,08,04,11,19,24.80
2017,08,04,11,20,24.80
2017,08,04,11,21,24.90
2017,08,04,11,22,24.90
2017,08,04,11,23,24.90
2017,08,04,11,24,24.90
2017,08,04,11,25,24.90
2017,08,04,11,26,24.90
2017,08,04,11,27,25.00
2017,08,04,11,28,25.00
2017,08,04,11,29,25.10
2017,08,04,11,30,25.10
2017,08,04,11,31,25.20
2017,08,04,11,32,25.30
2017,08,04,11,33,25.30
2017,08,04,11,34,25.40
2017,08,04,11,35,25.50
2017,08,04,11,36,25.50
2017,08,04,11,37,25.50
2017,08,04,11,38,25.50
2017,08,04,11,39,25.40
2017,08,04,11,40,25.40
2017,08,04,11,41,25.40
2017,08,04,11,42,25.40
2017,08,04,11,43,25.50
2017,08,04,11,44,25.50
2017,08,04,11,45,25.40
2017,08,04,11,46,25.40
2017,08,04,11,47,25.40
2017,08,04,11,48,25.30
2017,08,04,11,49,25.30
2017,08,04,11,50,25.30
2017,08,04,11,51,25.40
2017,08,04,11,52,25.50
2017,08,04,11,53,25.60
2017,08,04,11,54,25.70
2017,08,04,11,55,25.80
2017,08,04,11,56,25.80
2017,08,04,11,57,25.90
2017,08,04,11,58,26.00
2017,08,04,11,59,26.10
2017,08,04,12,00,26.10
2017,08,04,12,01,26.10
2017,08,04,12,02,26.20
2017,08,04,12,03,26.20
2017,08,04,12,04,26.20
2017,08,04,12,05,26.20
2017,08,04,12,06,26.20
2017,08,04,12,07,26.20
2017,08,04,12,08,26.20
2017,08,04,12,09,26.30
2017,08,04,12,10,26.30
2017,08,04,12,11,26.30
2017,08,04,12,12,26.30
2017,08,04,12,13,26.30
2017,08,04,12,14,26.20
2017,08,04,12,15,26.20
2017,08,04,12,16,26.10
2017,08,04,12,17,26.00
2017,08,04,12,18,26.00
2017,08,04,12,19,26.00
2017,08,04,12,20,26.00
2017,08,04,12,21,26.00
2017,08,04,12,22,26.00
2017,08,04,12,23,26.00
2017,08,04,12,24,26.00
2017,08,04,12,25,25.90
2017,08,04,12,26,25.80
2017,08,04,12,27,25.70
2017,08,04,12,28,25.70
2017,08,04,12,29,25.60
2017,08,04,12,30,25.60
2017,08,04,12,31,25.50
2017,08,04,12,32,25.50
2017,08,04,12,33,25.40
2017,08,04,12,34,25.40
2017,08,04,12,35,25.40
2017,08,04,12,36,25.40
2017,08,04,12,37,25.40
2017,08,04,12,38,25.40
2017,08,04,12,39,25.50
2017,08,04,12,40,25.50
2017,08,04,12,41,25.60
2017,08,04,12,42,25.70
2017,08,04,12,43,25.90
2017,08,04,12,44,26.00
2017,08,04,12,45,26.00
2017,08,04,12,46,26.10
2017,08,04,12,47,26.20
2017,08,04,12,48,26.20
2017,08,04,12,49,26.20
2017,08,04,12,50,26.20
2017,08,04,12,51,26.20
2017,08,04,12,52,26.20
2017,08,04,12,53,26.20
2017,08,04,12,54,26.10
2017,08,04,12,55,26.10
2017,08,04,12,56,26.10
2017,08,04,12,57,26.10
2017,08,04,12,58,26.10
2017,08,04,12,59,26.20
2017,08,04,13,00,26.20
2017,08,04,13,01,26.30
2017,08,04,13,02,26.30
2017,08,04,13,03,26.30
2017,08,04,13,04,26.30
2017,08,04,13,05,26.30
2017,08,04,13,06,26.30
2017,08,04,13,07,26.30
2017,08,04,13,08,26.30
2017,08,04,13,09,26.30
2017,08,04,13,10,26.20
2017,08,04,13,11,26.20
2017,08,04,13,12,26.30
2017,08,04,13,13,26.30
2017,08,04,13,14,26.30
2017,08,04,13,15,26.40
2017,08,04,13,16,26.50
2017,08,04,13,17,26.60
2017,08,04,13,18,26.60
2017,08,04,13,19,26.70
2017,08,04,13,20,26.70
2017,08,04,13,21,26.70
2017,08,04,13,22,26.70
2017,08,04,13,23,26.80
2017,08,04,13,24,26.90
2017,08,04,13,25,26.90
2017,08,04,13,26,27.00
2017,08,04,13,27,26.90
2017,08,04,13,28,26.80
2017,08,04,13,29,26.80
2017,08,04,13,30,26.80
2017,08,04,13,31,26.70
2017,08,04,13,32,26.80
2017,08,04,13,33,26.80
2017,08,04,13,34,26.90
2017,08,04,13,35,26.90
2017,08,04,13,36,26.90
2017,08,04,13,37,26.80
2017,08,04,13,38,26.80
2017,08,04,13,39,26.90
2017,08,04,13,40,26.90
2017,08,04,13,41,27.00
2017,08,04,13,42,27.10
2017,08,04,13,43,27.10
2017,08,04,13,44,27.10
2017,08,04,13,45,27.10
2017,08,04,13,46,27.20
2017,08,04,13,47,27.20
2017,08,04,13,48,27.30
2017,08,04,13,49,27.40
2017,08,04,13,50,27.50
2017,08,04,13,51,27.70
2017,08,04,13,52,27.80
2017,08,04,13,53,27.90
2017,08,04,13,54,27.90
2017,08,04,13,55,27.90
2017,08,04,13,56,27.90
2017,08,04,13,57,27.80
2017,08,04,13,58,27.70
2017,08,04,13,59,27.70
2017,08,04,14,00,27.70
2017,08,04,14,01,27.70
2017,08,04,14,02,27.60
2017,08,04,14,03,27.50
2017,08,04,14,04,27.30
2017,08,04,14,05,27.10
2017,08,04,14,06,27.00
2017,08,04,14,07,26.90
2017,08,04,14,08,26.80
2017,08,04,14,09,26.80
2017,08,04,14,10,26.80
2017,08,04,14,11,26.90
2017,08,04,14,12,26.90
2017,08,04,14,13,27.00
2017,08,04,14,14,27.00
2017,08,04,14,15,27.00
2017,08,04,14,16,27.10
2017,08,04,14,17,27.10
2017,08,04,14,18,27.10
2017,08,04,14,19,27.10
2017,08,04,14,20,27.20
2017,08,04,14,21,27.20
2017,08,04,14,22,27.30
2017,08,04,14,23,27.30
2017,08,04,14,24,27.30
2017,08,04,14,25,27.30
2017,08,04,14,26,27.30
2017,08,04,14,27,27.30
2017,08,04,14,28,27.40
2017,08,04,14,29,27.40
2017,08,04,14,30,27.50
2017,08,04,14,31,27.50
2017,08,04,14,32,27.50
2017,08,04,14,33,27.50
2017,08,04,14,34,27.40
2017,08,04,14,35,27.30
2017,08,04,14,36,27.20
2017,08,04,14,37,27.20
2017,08,04,14,38,27.20
2017,08,04,14,39,27.20
2017,08,04,14,40,27.10
2017,08,04,14,41,27.00
2017,08,04,14,42,27.00
2017,08,04,14,43,26.90
2017,08,04,14,44,26.90
2017,08,04,14,45,26.90
2017,08,04,14,46,27.00
2017,08,04,14,47,27.00
2017,08,04,14,48,27.00
2017,08,04,14,49,27.10
2017,08,04,14,50,27.10
2017,08,04,14,51,27.10
2017,08,04,14,52,27.20
2017,08,04,14,53,27.20
2017,08,04,14,54,27.20
2017,08,04,14,55,27.20
2017,08,04,14,56,27.30
2017,08,04,14,57,27.30
2017,08,04,14,58,27.20
2017,08,04,14,59,27.20
2017,08,04,15,00,27.20
2017,08,04,15,01,27.20
2017,08,04,15,02,27.10
2017,08,04,15,03,27.10
2017,08,04,15,04,27.10
2017,08,04,15,05,27.10
2017,08,04,15,06,27.10
2017,08,04,15,07,27.10
2017,08,04,15,08,27.00
2017,08,04,15,09,27.00
2017,08,04,15,10,26.90
2017,08,04,15,11,26.90
2017,08,04,15,12,26.90
2017,08,04,15,13,27.00
2017,08,04,15,14,27.10
2017,08,04,15,15,27.10
2017,08,04,15,16,27.30
2017,08,04,15,17,27.40
2017,08,04,15,18,27.60
2017,08,04,15,19,27.60
2017,08,04,15,20,27.60
2017,08,04,15,21,27.60
2017,08,04,15,22,27.50
2017,08,04,15,23,27.40
2017,08,04,15,24,27.30
2017,08,04,15,25,27.30
2017,08,04,15,26,27.20
2017,08,04,15,27,27.20
2017,08,04,15,28,27.10
2017,08,04,15,29,27.10
2017,08,04,15,30,27.00
2017,08,04,15,31,27.00
2017,08,04,15,32,27.00
2017,08,04,15,33,27.00
2017,08,04,15,34,27.10
2017,08,04,15,35,27.10
2017,08,04,15,36,27.10
2017,08,04,15,37,27.10
2017,08,04,15,38,27.10
2017,08,04,15,39,27.10
2017,08,04,15,40,27.10
2017,08,04,15,41,27.10
2017,08,04,15,42,27.10
2017,08,04,15,43,27.10
2017,08,04,15,44,27.10
2017,08,04,15,45,27.00
2017,08,04,15,46,27.00
2017,08,04,15,47,27.10
2017,08,04,15,48,27.10
2017,08,04,15,49,27.20
2017,08,04,15,50,27.20
2017,08,04,15,51,27.20
2017,08,04,15,52,27.30
2017,08,04,15,53,27.40
2017,08,04,15,54,27.50
2017,08,04,15,55,27.60
2017,08,04,15,56,27.70
2017,08,04,15,57,27.80
2017,08,04,15,58,27.80
2017,08,04,15,59,27.90
2017,08,04,16,00,27.90
2017,08,04,16,01,27.90
2017,08,04,16,02,27.90
2017,08,04,16,03,27.90
2017,08,04,16,04,27.80
2017,08,04,16,05,27.80
2017,08,04,16,06,27.70
2017,08,04,16,07,27.70
2017,08,04,16,08,27.70
2017,08,04,16,09,27.70
2017,08,04,17,04,27.80
2017,08,04,17,05,27.80
2017,08,04,17,06,27.90
2017,08,04,17,07,28.00
2017,08,04,17,08,28.10
2017,08,04,17,09,28.20
2017,08,04,17,10,28.30
2017,08,04,17,11,28.40
2017,08,04,17,12,28.50
2017,08,04,17,13,28.50
2017,08,04,17,14,28.60
2017,08,04,17,15,28.60
2017,08,04,17,16,28.60
2017,08,04,17,17,28.60
2017,08,04,17,18,28.50
2017,08,04,17,19,28.40
2017,08,04,17,20,28.30
2017,08,04,17,21,28.20
2017,08,04,17,22,28.10
2017,08,04,17,23,28.00
2017,08,04,17,24,27.90
2017,08,04,17,25,27.90
2017,08,04,17,26,27.90
2017,08,04,17,27,27.80
2017,08,04,17,28,27.80
2017,08,04,17,29,27.80
2017,08,04,17,30,27.80
2017,08,04,17,31,27.70
2017,08,04,17,32,27.70
2017,08,04,17,33,27.60
2017,08,04,17,34,27.60
2017,08,04,17,35,27.50
2017,08,04,17,36,27.50
2017,08,04,17,37,27.40
2017,08,04,17,38,27.40
2017,08,04,17,39,27.40
2017,08,04,17,40,27.40
2017,08,04,17,41,27.40
2017,08,04,17,42,27.40
2017,08,04,17,43,27.40
2017,08,04,17,44,27.30
2017,08,04,17,45,27.20
2017,08,04,17,46,27.20
2017,08,04,17,47,27.10
2017,08,04,17,48,27.10
2017,08,04,17,49,27.00
2017,08,04,17,50,27.00
2017,08,04,17,51,26.90
2017,08,04,17,52,26.90
2017,08,04,17,53,26.90
2017,08,04,17,54,26.90
2017,08,04,17,55,26.90
2017,08,04,17,56,26.80
2017,08,04,17,57,26.80
2017,08,04,17,58,26.80
2017,08,04,17,59,26.80
2017,08,04,18,00,26.70
2017,08,04,18,01,26.70
2017,08,04,18,02,26.70
2017,08,04,18,03,26.60
2017,08,04,18,04,26.60
2017,08,04,18,05,26.60
2017,08,04,18,06,26.50
2017,08,04,18,07,26.50
2017,08,04,18,08,26.40
2017,08,04,18,09,26.30
2017,08,04,18,10,26.30
2017,08,04,18,11,26.20
2017,08,04,18,12,26.10
2017,08,04,18,13,26.10
2017,08,04,18,14,26.00
2017,08,04,18,15,26.00
2017,08,04,18,16,25.90
2017,08,04,18,17,25.90
2017,08,04,18,18,25.80
2017,08,04,18,19,25.80
2017,08,04,18,20,25.80
2017,08,04,18,21,25.80
2017,08,04,18,22,25.80
2017,08,04,18,23,25.80
2017,08,04,18,24,25.70
2017,08,04,18,25,25.70
2017,08,04,18,26,25.70
2017,08,04,18,27,25.60
2017,08,04,18,28,25.60
2017,08,04,18,29,25.60
2017,08,04,18,30,25.60
2017,08,04,18,31,25.60
2017,08,04,18,32,25.60
2017,08,04,18,33,25.60
2017,08,04,18,34,25.60
2017,08,04,18,35,25.50
2017,08,04,18,36,25.50
2017,08,04,18,37,25.50
2017,08,04,18,38,25.40
2017,08,04,18,39,25.40
2017,08,04,18,40,25.40
2017,08,04,18,41,25.40
2017,08,04,18,42,25.30
2017,08,04,18,43,25.30
2017,08,04,18,44,25.30
2017,08,04,18,45,25.30
2017,08,04,18,46,25.30
2017,08,04,18,47,25.30
2017,08,04,18,48,25.30
2017,08,04,18,49,25.30
2017,08,04,18,50,25.30
2017,08,04,18,51,25.30
2017,08,04,18,52,25.30
2017,08,04,18,53,25.30
2017,08,04,18,54,25.30
2017,08,04,18,55,25.30
2017,08,04,18,56,25.30
2017,08,04,18,57,25.30
2017,08,04,18,58,25.30
2017,08,04,18,59,25.30
2017,08,04,19,00,25.30
2017,08,04,19,01,25.30
2017,08,04,19,02,25.30
2017,08,04,19,03,25.30
2017,08,04,19,04,25.30
2017,08,04,19,05,25.30
2017,08,04,19,06,25.30
2017,08,04,19,07,25.30
2017,08,04,19,08,25.20
2017,08,04,19,09,25.20
2017,08,04,19,10,25.20
2017,08,04,19,11,25.20
2017,08,04,19,12,25.10
2017,08,04,19,13,25.10